Date String (YYYY-MM-DD hh:mm:ss) UTC,Instrument flags,Ambient pressure (hPa),Sample flow (lpm),Bypass flow (lpm),Sample temperature (°C),Ambient temperature (°C),ASC tube jacket temperature (°C),LED temperature (°C),Box temperature (°C),Sample RH (%),Span deviation,Mass concentration (μg/m³),Mass concentration (μg/m³),Mass concentration (μg/m³)
DateTimeUTC,F1_M11,P_M11,Q1_M11,Q2_M11,T1_M11,T2_M11,T3_M11,T4_M11,T5_M11,U1_M11,ZSPAN_M11,X0_M11,X2_M11,X1_M11
2022-04-20 01:00:00,,0811.5,5.02,0.00,29.6,26.1,00.0,38.5,30.9,06.6,0000.0,0010.30,0004.06,0002.21
2022-04-20 01:01:00,,0811.5,5.00,0.00,29.5,26.1,00.0,38.5,30.9,06.6,0000.0,0009.98,0004.05,0002.20
2022-04-20 01:02:00,,0811.5,5.00,0.00,29.4,26.5,00.0,38.5,31.0,06.7,0000.0,0009.93,0004.00,0002.20
2022-04-20 01:03:00,,0811.5,5.00,0.00,29.4,26.9,00.0,38.4,31.1,06.7,0000.0,0009.70,0003.98,0002.19
2022-04-20 01:04:00,,0811.5,4.99,0.00,29.4,27.2,00.0,38.4,31.2,06.7,0000.0,0009.63,0004.01,0002.16
2022-04-20 01:05:00,,0811.5,5.01,0.00,29.4,27.5,00.0,38.4,31.2,06.8,0000.0,0009.83,0004.03,0002.16
2022-04-20 01:06:00,,0811.5,5.00,0.00,29.4,27.8,00.0,38.4,31.2,06.8,0000.0,0010.23,0003.98,0002.17
2022-04-20 01:07:00,,0811.5,5.01,0.00,29.5,28.0,00.0,38.4,31.2,06.7,0000.0,0010.34,0003.96,0002.16
2022-04-20 01:08:00,,0811.5,5.00,0.00,29.5,28.1,00.0,38.4,31.3,06.7,0000.0,0010.46,0003.96,0002.13
2022-04-20 01:09:00,,0811.6,4.99,0.00,29.5,28.3,00.0,38.4,31.3,06.7,0000.0,0010.34,0003.91,0002.12
2022-04-20 01:10:00,,0811.6,5.02,0.00,29.6,28.4,00.0,38.4,31.4,06.7,0000.0,0010.34,0003.87,0002.11
2022-04-20 01:11:00,,0811.6,4.98,0.00,29.6,28.5,00.0,38.4,31.4,06.5,0000.0,0010.98,0003.89,0002.11
2022-04-20 01:12:00,,0811.6,5.02,0.00,29.6,28.6,00.0,38.4,31.4,06.5,0000.0,0010.83,0003.88,0002.09
2022-04-20 01:13:00,,0811.6,4.98,0.00,29.6,28.7,00.0,38.5,31.4,06.5,0000.0,0011.34,0003.91,0002.09
2022-04-20 01:14:00,,0811.6,5.01,0.00,29.7,28.7,00.0,38.5,31.5,06.6,0000.0,0011.69,0003.93,0002.12
2022-04-20 01:15:00,,0811.5,4.99,0.00,29.7,28.8,00.0,38.5,31.5,06.6,0000.0,0012.87,0003.93,0002.13
2022-04-20 01:16:00,,0811.6,5.02,0.00,29.7,28.8,00.0,38.5,31.5,06.6,0000.0,0012.63,0003.91,0002.12
2022-04-20 01:17:00,,0811.6,4.99,0.00,29.7,28.9,00.0,38.5,31.5,06.6,0000.0,0012.51,0003.93,0002.12
2022-04-20 01:18:00,,0811.6,5.01,0.00,29.7,28.9,00.0,38.5,31.6,06.7,0000.0,0012.47,0003.94,0002.12
2022-04-20 01:19:00,,0811.6,4.99,0.00,29.8,29.0,00.0,38.6,31.6,06.7,0000.0,0012.35,0003.92,0002.12
2022-04-20 01:20:00,,0811.6,4.98,0.00,29.8,29.0,00.0,38.6,31.6,06.6,0000.0,0012.62,0003.91,0002.10
2022-04-20 01:21:00,,0811.6,5.00,0.00,29.7,27.6,00.0,38.6,31.2,06.7,0000.0,0012.90,0003.92,0002.11
2022-04-20 01:22:00,,0811.7,5.00,0.00,29.6,26.0,00.0,38.6,31.0,06.7,0000.0,0012.66,0003.97,0002.10
2022-04-20 01:23:00,,0811.6,5.00,0.00,29.5,26.1,00.0,38.6,30.9,06.8,0000.0,0013.58,0004.04,0002.12
2022-04-20 01:24:00,,0811.6,5.00,0.00,29.4,26.5,00.0,38.5,31.0,06.8,0000.0,0013.24,0004.04,0002.10
2022-04-20 01:25:00,,0811.6,5.00,0.00,29.4,26.9,00.0,38.5,31.1,06.8,0000.0,0012.48,0004.01,0002.07
2022-04-20 01:26:00,,0811.5,5.01,0.00,29.4,27.2,00.0,38.4,31.1,06.9,0000.0,0011.42,0003.99,0002.05
2022-04-20 01:27:00,,0811.5,4.99,0.00,29.4,27.5,00.0,38.4,31.1,06.9,0000.0,0012.06,0003.96,0002.04
2022-04-20 01:28:00,,0811.7,5.01,0.00,29.4,27.8,00.0,38.4,31.2,06.9,0000.0,0012.04,0003.92,0002.01
2022-04-20 01:29:00,,0811.7,4.98,0.00,29.4,28.0,00.0,38.4,31.2,06.9,0000.0,0012.64,0003.88,0001.99
2022-04-20 01:30:00,,0811.7,5.01,0.00,29.5,28.1,00.0,38.4,31.2,06.9,0000.0,0013.05,0003.88,0001.97
2022-04-20 01:31:00,,0811.7,4.98,0.00,29.5,28.3,00.0,38.4,31.3,06.8,0000.0,0012.91,0003.91,0001.97
2022-04-20 01:32:00,,0811.7,5.01,0.00,29.5,28.4,00.0,38.4,31.3,06.8,0000.0,0013.37,0003.89,0001.96
2022-04-20 01:33:00,,0811.7,5.00,0.00,29.5,28.5,00.0,38.4,31.3,06.8,0000.0,0013.16,0003.79,0001.95
2022-04-20 01:34:00,,0811.7,4.99,0.00,29.5,28.6,00.0,38.4,31.3,06.9,0000.0,0012.23,0003.73,0001.94
2022-04-20 01:35:00,,0811.7,5.00,0.00,29.5,28.6,00.0,38.5,31.4,06.9,0000.0,0012.14,0003.75,0001.95
2022-04-20 01:36:00,,0811.7,4.99,0.00,29.6,28.7,00.0,38.5,31.4,06.9,0000.0,0012.26,0003.75,0001.96
2022-04-20 01:37:00,,0811.7,5.01,0.00,29.6,28.8,00.0,38.5,31.4,06.8,0000.0,0012.22,0003.75,0001.97
2022-04-20 01:38:00,,0811.7,5.00,0.00,29.6,28.8,00.0,38.5,31.4,06.7,0000.0,0011.95,0003.78,0001.97
2022-04-20 01:39:00,,0811.7,5.02,0.00,29.6,28.8,00.0,38.5,31.4,06.6,0000.0,0011.82,0003.80,0001.99
2022-04-20 01:40:00,,0811.7,4.99,0.00,29.6,28.9,00.0,38.5,31.4,06.6,0000.0,0011.12,0003.84,0002.00
2022-04-20 01:41:00,,0811.7,5.01,0.00,29.6,28.9,00.0,38.5,31.4,06.5,0000.0,0010.70,0003.85,0002.00
2022-04-20 01:42:00,,0811.7,4.99,0.00,29.7,28.9,00.0,38.5,31.4,06.4,0000.0,0010.87,0003.84,0002.01
2022-04-20 01:43:00,,0811.7,5.00,0.00,29.7,28.9,00.0,38.5,31.4,06.4,0000.0,0010.81,0003.82,0002.01
2022-04-20 01:44:00,,0811.7,5.02,0.00,29.7,28.9,00.0,38.5,31.5,06.3,0000.0,0011.41,0003.83,0002.01
2022-04-20 01:45:00,,0811.7,4.99,0.00,29.7,28.5,00.0,38.6,31.3,06.3,0000.0,0012.34,0003.85,0001.99
2022-04-20 01:46:00,,0811.7,5.01,0.00,29.6,26.4,00.0,38.6,30.9,06.3,0000.0,0013.15,0003.87,0001.97
2022-04-20 01:47:00,,0811.7,4.99,0.00,29.4,25.8,00.0,38.5,30.8,06.4,0000.0,0013.38,0003.86,0001.95
2022-04-20 01:48:00,,0811.7,5.00,0.00,29.4,26.1,00.0,38.5,30.8,06.5,0000.0,0013.21,0003.85,0001.93
2022-04-20 01:49:00,,0811.7,4.99,0.00,29.3,26.5,00.0,38.4,30.9,06.5,0000.0,0013.03,0003.86,0001.91
2022-04-20 01:50:00,,0811.7,5.00,0.00,29.3,26.9,00.0,38.4,31.0,06.6,0000.0,0013.26,0003.87,0001.90
2022-04-20 01:51:00,,0811.7,5.01,0.00,29.3,27.3,00.0,38.4,31.0,06.6,0000.0,0013.34,0003.88,0001.90
2022-04-20 01:52:00,,0811.7,4.99,0.00,29.4,27.5,00.0,38.4,31.1,06.6,0000.0,0013.29,0003.87,0001.90
2022-04-20 01:53:00,,0811.6,5.00,0.00,29.4,27.8,00.0,38.3,31.1,06.4,0000.0,0013.29,0003.88,0001.90
2022-04-20 01:54:00,,0811.7,5.00,0.00,29.4,28.0,00.0,38.3,31.2,06.4,0000.0,0012.75,0003.84,0001.89
2022-04-20 01:55:00,,0811.7,4.99,0.00,29.4,28.1,00.0,38.3,31.2,06.4,0000.0,0012.99,0003.93,0001.89
2022-04-20 01:56:00,,0811.7,5.01,0.00,29.5,28.3,00.0,38.4,31.3,06.4,0000.0,0011.80,0003.98,0001.92
2022-04-20 01:57:00,,0811.8,4.98,0.00,29.5,28.4,00.0,38.4,31.3,06.4,0000.0,0011.67,0003.97,0001.93
2022-04-20 01:58:00,,0811.9,5.01,0.00,29.5,28.5,00.0,38.4,31.3,06.4,0000.0,0010.71,0003.93,0001.92
2022-04-20 01:59:00,,0811.7,5.00,0.00,29.5,28.6,00.0,38.4,31.4,06.3,0000.0,0011.12,0003.93,0001.93
